Temp
16 16 17 17 17 18 19 19 19 19 19 19 19 18 18 18 18 18 18 18 18 17 18 18 19 18 18 18 18 18 18 18 18 18 18 18 18 18 17 17 16 18 18
17 17 17 18 18 18 19 19 19 19 19 19 18 17 18 18 18 18 18 18 17 18 18 18 18 18 18 18 18 18 18 18 18 17 18 18 18 17 17 17 17 18 17
18 18 18 18 18 18 18 18 19 19 19 19 18 18 18 17 18 18 18 18 18 18 18 18 18 18 18 18 17 18 18 18 17 17 16 16 18 17 17 17 17 17 17
18 18 18 18 18 18 18 19 19 19 19 18 18 18 18 18 18 18 18 18 18 18 18 18 18 18 18 18 18 18 18 17 17 17 17 16 18 18 17 17 17 17 17
18 17 19 19 18 18 18 19 19 19 19 18 18 18 18 18 18 18 18 18 18 18 18 18 18 18 18 17 18 18 18 17 16 17 17 17 18 18 17 17 17 17 17
18 19 19 19 18 17 19 19 19 19 19 18 18 18 18 18 18 18 19 18 18 18 18 18 18 18 18 18 18 18 18 17 17 17 17 18 18 18 17 17 17 17 17
18 19 19 19 18 18 19 19 20 19 19 19 19 18 18 18 18 19 19 18 18 18 18 19 19 19 19 19 19 18 18 17 17 18 17 18 18 17 17 17 17 17 17
18 18 19 19 18 19 19 19 20 19 19 19 19 18 18 18 19 19 19 19 19 19 19 19 19 19 19 19 19 18 18 18 18 18 18 18 18 17 17 17 17 17 17
19 18 19 18 18 19 19 19 20 19 19 19 19 19 19 19 19 19 19 19 19 19 19 19 19 19 19 19 19 19 18 18 18 18 18 18 18 18 17 17 16 17 17
20 18 17 17 19 19 19 19 19 19 19 19 19 19 18 18 19 19 18 19 19 19 19 19 19 19 18 19 19 18 18 17 17 17 17 18 18 18 17 17 17 17 17
20 19 18 17 17 17 18 20 19 19 19 20 19 18 17 18 19 19 18 19 19 19 19 18 18 18 19 19 19 19 19 18 19 18 18 19 18 18 17 17 17 17 17
20 20 19 19 18 18 17 20 19 19 20 19 18 20 19 18 18 19 19 19 19 18 18 19 18 18 19 19 20 20 19 18 18 18 19 19 19 18 18 18 17 17 17
21 21 20 20 19 19 19 19 18 19 19 19 19 19 17 17 18 19 19 19 19 18 19 18 19 18 19 19 19 20 20 18 19 19 19 19 19 18 18 17 17 17 17
22 22 21 20 20 20 20 20 19 20 20 20 20 19 17 19 18 19 19 18 18 17 18 18 18 19 18 19 20 20 20 19 18 19 19 19 19 18 17 18 17 17 17
22 23 22 20 20 20 20 20 20 21 21 21 20 20 19 20 19 19 19 19 19 19 19 18 19 19 18 19 20 20 20 20 18 19 19 19 19 19 18 18 18 17 17
23 23 22 21 20 20 20 20 20 21 21 21 21 20 19 18 19 20 19 18 19 19 19 18 19 20 19 19 19 19 20 20 19 19 18 19 19 18 18 18 17 17 17
24 23 22 21 20 20 20 19 20 20 21 21 21 21 20 19 19 20 19 19 18 18 19 19 20 19 19 19 20 20 20 19 19 19 19 18 18 18 18 17 17 17 17
23 23 22 21 20 20 19 19 19 20 20 21 21 21 20 20 19 20 20 20 20 19 20 19 20 18 20 19 20 20 20 20 19 19 19 18 18 17 18 18 17 17 17
23 23 22 22 21 20 18 18 19 20 20 21 21 21 20 20 20 19 20 20 19 19 19 19 20 19 20 20 20 20 20 20 19 19 19 19 18 18 18 18 18 17 17
23 22 22 21 21 20 19 19 19 19 20 20 21 21 20 20 20 20 19 19 19 19 19 19 19 19 20 20 21 20 20 20 20 20 19 19 19 18 18 18 18 17 17
23 22 22 21 21 20 19 19 19 20 20 20 20 21 20 20 20 20 19 19 19 20 19 20 19 19 19 20 21 20 20 20 20 20 20 20 19 18 18 18 17 17 17
23 22 22 21 21 20 20 19 19 20 20 20 20 20 20 20 19 20 20 19 19 19 20 20 19 19 20 20 20 20 20 20 20 20 20 19 19 19 18 17 17 17 16
23 23 22 21 20 20 20 19 20 20 21 21 20 20 20 20 19 19 19 20 19 19 19 20 20 19 19 20 20 19 20 20 20 20 20 19 19 19 18 18 17 16 16
24 23 22 21 21 20 20 20 20 20 20 21 21 20 20 20 19 19 19 20 19 19 19 19 20 19 19 19 21 20 19 19 20 19 20 19 19 19 18 18 18 18 16
24 23 22 22 21 20 20 20 20 20 20 21 21 21 21 20 20 20 19 19 20 20 19 19 19 19 20 19 20 20 20 20 20 20 20 19 19 19 19 19 18 18 17
25 23 22 22 21 20 20 20 20 20 20 21 21 21 21 21 20 20 19 19 19 20 19 19 19 20 20 20 20 20 20 20 20 20 20 20 20 19 19 19 19 18 18
Height
1529 1532 1536 1539 1542 1544 1546 1547 1549 1550 1550 1552 1554 1555 1555 1556 1557 1557 1558 1558 1559 1561 1563 1564 1565 1565 1566 1566 1566 1565 1565 1565 1567 1568 1568 1569 1570 1571 1571 1572 1574 1575 1575
1528 1533 1537 1541 1544 1546 1548 1549 1551 1551 1552 1554 1556 1557 1558 1558 1558 1559 1560 1560 1562 1563 1565 1565 1566 1567 1567 1567 1567 1567 1567 1567 1568 1569 1570 1571 1571 1572 1573 1574 1574 1576 1577
1530 1535 1540 1543 1545 1547 1550 1551 1552 1553 1554 1556 1558 1559 1560 1560 1561 1561 1562 1562 1563 1565 1566 1567 1568 1568 1568 1569 1568 1568 1569 1569 1570 1571 1571 1574 1573 1574 1575 1575 1577 1578 1578
1531 1537 1542 1545 1547 1549 1552 1553 1554 1555 1557 1558 1559 1561 1561 1562 1562 1563 1563 1564 1565 1566 1567 1568 1569 1569 1570 1570 1570 1570 1571 1571 1572 1573 1574 1576 1575 1576 1577 1578 1579 1579 1580
1534 1541 1543 1546 1549 1551 1553 1555 1556 1557 1558 1560 1562 1563 1563 1564 1564 1565 1565 1566 1567 1568 1569 1569 1570 1570 1570 1571 1571 1572 1572 1572 1575 1576 1576 1578 1577 1577 1579 1579 1580 1581 1582
1536 1543 1544 1547 1550 1553 1555 1556 1558 1559 1561 1563 1565 1566 1567 1566 1566 1566 1567 1568 1569 1570 1570 1571 1571 1571 1571 1571 1572 1574 1574 1574 1576 1578 1579 1579 1579 1580 1581 1581 1582 1583 1584
1539 1542 1545 1549 1552 1554 1556 1558 1560 1563 1564 1566 1568 1569 1569 1570 1570 1569 1569 1570 1571 1571 1572 1573 1573 1573 1573 1572 1573 1575 1576 1577 1579 1581 1580 1581 1581 1581 1582 1583 1584 1585 1586
1542 1544 1547 1550 1553 1556 1558 1560 1563 1566 1568 1569 1571 1572 1573 1573 1573 1572 1572 1572 1572 1573 1574 1575 1575 1575 1575 1575 1576 1577 1578 1580 1581 1582 1582 1582 1582 1583 1584 1585 1586 1587 1588
1544 1546 1548 1551 1554 1557 1559 1563 1566 1568 1570 1572 1574 1575 1576 1577 1577 1577 1576 1575 1575 1575 1576 1577 1577 1576 1576 1577 1579 1579 1582 1583 1584 1584 1584 1583 1584 1584 1585 1586 1587 1588 1589
1546 1547 1550 1553 1555 1558 1560 1565 1568 1570 1572 1573 1574 1575 1577 1577 1578 1579 1579 1578 1577 1578 1579 1579 1579 1579 1578 1579 1581 1583 1583 1581 1582 1583 1585 1585 1585 1585 1586 1587 1589 1590 1591
1547 1548 1552 1554 1557 1560 1562 1566 1569 1572 1572 1574 1575 1575 1575 1575 1578 1580 1581 1582 1581 1581 1581 1581 1582 1583 1580 1579 1582 1584 1584 1583 1583 1585 1586 1585 1585 1586 1587 1588 1590 1591 1592
1545 1549 1553 1556 1558 1561 1565 1567 1570 1572 1573 1574 1574 1571 1575 1573 1579 1581 1583 1584 1585 1585 1585 1584 1584 1585 1583 1582 1583 1583 1585 1584 1585 1585 1585 1585 1586 1586 1587 1589 1590 1591 1593
1544 1548 1551 1555 1558 1562 1565 1568 1571 1573 1573 1574 1571 1575 1560 1577 1579 1582 1585 1586 1586 1587 1587 1587 1586 1584 1585 1584 1583 1584 1584 1583 1585 1586 1585 1586 1587 1587 1588 1589 1591 1592 1593
1541 1547 1550 1553 1558 1562 1564 1568 1572 1573 1574 1575 1576 1576 1579 1580 1580 1585 1585 1585 1585 1585 1586 1588 1588 1587 1585 1584 1585 1585 1587 1585 1585 1587 1586 1587 1588 1589 1590 1592 1593 1594 1595
1539 1545 1548 1551 1556 1561 1564 1568 1571 1574 1576 1576 1576 1580 1579 1581 1584 1586 1586 1585 1583 1583 1583 1586 1589 1586 1584 1584 1586 1587 1587 1588 1586 1587 1588 1588 1590 1590 1591 1592 1593 1595 1596
1537 1542 1546 1549 1554 1559 1563 1567 1570 1573 1576 1576 1577 1578 1582 1581 1583 1585 1586 1584 1584 1585 1588 1588 1588 1587 1584 1584 1586 1588 1588 1589 1588 1587 1590 1590 1591 1591 1592 1593 1595 1596 1598
1536 1542 1543 1547 1552 1557 1561 1564 1567 1571 1573 1576 1576 1576 1578 1580 1581 1581 1582 1583 1587 1587 1588 1588 1587 1586 1585 1585 1588 1589 1589 1589 1589 1590 1590 1591 1592 1592 1592 1594 1595 1597 1598
1534 1539 1542 1547 1549 1554 1558 1562 1565 1568 1571 1574 1575 1574 1575 1577 1578 1579 1581 1582 1584 1585 1587 1587 1586 1585 1586 1588 1589 1589 1589 1590 1590 1592 1591 1591 1592 1593 1594 1593 1595 1597 1598
1532 1536 1541 1546 1547 1550 1556 1560 1563 1566 1569 1571 1573 1573 1573 1574 1576 1578 1580 1582 1582 1584 1584 1586 1586 1586 1587 1588 1589 1590 1592 1592 1593 1593 1592 1593 1593 1594 1593 1595 1596 1598 1599
1528 1533 1539 1543 1546 1549 1554 1558 1561 1564 1567 1568 1571 1572 1571 1573 1575 1577 1579 1581 1581 1583 1583 1584 1584 1585 1586 1588 1589 1592 1592 1593 1594 1594 1594 1593 1594 1594 1595 1596 1597 1598 1598
1524 1528 1534 1539 1544 1546 1551 1555 1559 1561 1564 1567 1569 1571 1571 1572 1574 1576 1577 1579 1581 1583 1583 1583 1585 1586 1588 1588 1590 1592 1593 1594 1594 1595 1597 1597 1596 1596 1596 1597 1597 1598 1597
1518 1523 1529 1535 1540 1543 1547 1552 1556 1560 1563 1564 1567 1569 1569 1570 1572 1574 1575 1577 1579 1580 1583 1583 1584 1586 1588 1588 1590 1592 1592 1596 1596 1596 1596 1597 1598 1598 1599 1597 1598 1597 1597
1512 1517 1522 1529 1535 1538 1544 1550 1554 1558 1561 1562 1564 1566 1566 1568 1570 1572 1574 1576 1578 1579 1581 1582 1584 1585 1587 1588 1589 1590 1592 1593 1595 1596 1596 1596 1597 1597 1597 1598 1597 1597 1596
1506 1512 1517 1523 1529 1534 1541 1545 1548 1551 1554 1557 1560 1563 1563 1565 1568 1571 1572 1574 1576 1578 1579 1581 1582 1584 1585 1587 1588 1589 1591 1592 1593 1595 1596 1595 1597 1597 1597 1597 1597 1598 1596
1502 1507 1511 1518 1524 1529 1535 1540 1544 1548 1551 1554 1557 1560 1561 1562 1565 1568 1570 1572 1574 1576 1577 1580 1581 1583 1584 1586 1587 1589 1590 1592 1594 1594 1595 1594 1595 1596 1598 1599 1597 1597 1597
1499 1504 1509 1512 1519 1525 1529 1535 1539 1542 1547 1550 1553 1556 1558 1559 1562 1565 1568 1569 1571 1574 1575 1577 1579 1581 1583 1584 1586 1588 1589 1591 1592 1592 1593 1592 1593 1595 1596 1596 1597 1597 1597
Wind_Speed
26 24 26 23 20 20 20 19 17 17 17 15 16 17 15 14 15 15 15 14 13 12 11 12 10 10 11 11 13 12 10 9 9 10 10 9 11 13 13 16 15 5 10
31 32 27 23 20 20 19 18 17 17 16 16 16 15 14 15 15 16 15 15 13 12 13 11 11 11 9 10 12 14 15 15 15 18 18 12 10 13 10 10 13 8 10
30 33 27 23 20 18 17 17 16 15 15 15 14 14 14 14 15 15 14 14 13 12 12 12 11 11 11 12 11 14 15 16 16 14 13 7 8 10 11 11 10 11 12
32 29 23 22 18 17 16 16 15 14 14 14 13 13 12 14 15 14 15 15 14 13 13 12 10 9 9 10 11 13 15 15 14 13 17 11 5 9 9 12 11 12 11
32 20 23 21 16 16 16 15 14 13 13 12 13 11 12 13 14 14 15 15 15 15 14 13 12 10 9 8 11 14 18 17 12 14 15 13 6 11 10 11 9 11 11
28 22 25 21 17 16 16 15 14 12 11 12 12 12 12 12 14 15 16 16 16 16 16 15 14 14 13 8 12 15 17 12 11 12 8 6 8 11 11 11 8 9 7
23 20 25 21 19 17 16 15 13 11 11 11 11 11 12 12 13 14 16 17 16 16 16 15 15 15 14 13 11 12 15 15 11 12 7 5 8 10 10 10 9 10 10
24 20 24 22 19 18 15 14 13 11 10 10 10 11 11 11 12 14 15 16 15 14 14 14 14 14 13 13 12 11 11 17 11 6 4 7 8 10 11 10 10 10 11
23 22 26 23 21 17 15 14 13 11 10 10 10 12 11 12 11 11 14 15 13 12 12 13 15 15 13 13 14 14 15 13 10 2 6 8 7 8 9 10 10 10 10
26 22 21 21 20 18 16 14 13 11 10 10 11 11 13 12 12 9 10 10 11 12 13 11 11 15 11 15 13 11 14 12 9 10 2 3 4 7 7 9 9 9 9
29 23 22 19 16 14 15 15 13 11 10 9 9 5 10 9 8 6 5 6 9 11 11 8 8 7 8 11 11 9 4 7 9 5 3 2 3 5 7 7 8 9 9
28 25 23 20 17 14 13 15 13 12 10 8 5 1 8 12 5 4 5 5 8 7 9 8 10 7 12 11 11 9 6 8 10 6 6 6 2 5 6 6 7 8 8
29 28 26 22 19 14 17 13 9 8 6 6 5 7 6 10 6 6 7 6 4 11 10 8 10 8 6 5 6 4 4 11 6 6 5 6 2 4 7 6 6 7 8
31 30 28 26 23 16 21 11 9 9 9 9 5 2 4 7 8 3 8 5 7 3 6 9 8 5 7 5 9 7 7 11 15 3 7 9 3 2 4 5 6 6 6
29 30 29 27 24 22 15 9 13 12 9 9 7 1 6 4 6 4 4 3 3 4 4 2 2 3 4 12 9 8 2 3 5 3 7 6 1 0 3 6 6 6 5
29 32 31 27 24 24 20 15 13 15 10 8 7 7 9 4 5 7 6 7 1 4 6 3 5 7 5 10 4 4 7 2 0 5 3 9 6 3 2 3 6 6 5
31 27 32 28 25 28 24 17 17 10 10 8 5 10 9 6 2 5 4 2 5 3 4 1 3 7 8 9 8 3 6 5 7 3 2 5 8 8 6 2 4 6 5
29 31 28 23 22 27 29 22 19 13 12 10 10 13 11 10 7 4 6 2 3 6 1 2 4 5 6 6 5 2 6 5 5 5 4 3 4 6 8 6 2 4 4
31 32 29 26 25 21 23 22 20 14 15 11 10 11 10 8 9 8 6 4 2 2 6 2 1 2 5 4 4 7 5 3 4 3 5 2 3 8 9 8 8 4 2
32 34 33 29 26 25 22 21 16 17 17 15 13 12 13 10 10 9 6 5 3 4 3 2 3 1 2 3 13 10 6 5 7 3 6 5 3 3 6 9 6 5 3
34 35 35 32 29 29 24 24 22 19 19 17 14 13 16 15 14 10 7 7 5 3 4 3 7 6 3 7 7 8 4 9 6 5 9 4 3 8 3 7 2 4 5
38 36 35 36 33 32 30 25 23 20 20 18 17 17 19 18 15 12 12 7 5 7 8 3 8 8 3 9 6 7 7 7 4 7 4 3 6 5 4 2 3 3 1
39 40 38 37 37 36 31 26 23 22 20 20 19 19 21 20 15 13 12 10 11 10 6 4 9 9 6 5 5 4 6 4 10 3 7 8 7 5 3 5 3 4 3
40 42 40 38 39 38 35 31 30 30 29 23 22 21 21 18 19 15 14 13 14 9 9 5 7 10 6 5 7 7 3 3 5 6 4 8 3 4 4 2 1 5 7
41 41 41 39 39 39 37 32 31 31 27 25 22 21 21 19 16 19 19 15 13 13 10 8 8 12 10 8 4 5 5 2 2 4 10 10 6 6 5 5 7 3 2
39 40 39 40 39 40 37 39 32 35 30 27 25 23 24 22 19 18 19 18 15 13 14 12 13 11 12 12 10 8 5 6 6 7 9 12 9 11 7 5 9 6 5
Wind_Direction
148 144 145 134 134 133 132 126 120 109 99 94 87 82 81 82 81 83 87 86 93 93 92 92 85 82 83 66 59 59 66 80 89 90 92 108 118 122 112 104 90 109 100
150 149 147 139 138 135 130 125 116 106 102 94 88 87 85 80 82 83 83 83 86 87 88 90 85 81 73 66 65 65 74 82 89 88 77 76 115 130 117 124 125 105 103
154 151 147 143 139 135 132 125 116 109 101 95 93 94 88 87 84 83 83 82 83 84 87 92 85 76 70 66 68 70 86 88 96 93 90 59 109 134 105 112 103 105 106
153 151 153 149 140 134 133 126 119 111 104 103 99 93 90 90 87 85 80 79 80 83 85 86 83 74 63 62 66 74 94 88 82 89 80 102 65 130 110 99 106 100 102
151 147 167 156 147 139 135 131 122 116 107 109 106 102 99 94 91 85 83 81 79 83 87 88 82 70 67 81 76 81 99 91 85 78 76 121 63 111 119 109 108 107 102
137 161 165 161 154 146 140 134 127 117 114 114 106 104 103 101 92 88 88 89 88 87 85 83 76 70 66 82 95 97 95 82 75 102 112 98 79 112 107 109 106 115 109
150 173 165 160 155 151 145 138 131 123 115 117 111 108 100 96 96 96 100 96 91 88 89 83 79 69 66 71 112 100 105 92 87 88 125 67 107 105 104 101 106 107 110
153 160 168 161 157 155 150 142 138 125 117 122 118 106 96 93 95 100 106 102 97 89 87 83 76 61 62 73 77 81 109 98 94 112 112 90 107 103 100 100 107 105 104
153 158 163 159 160 159 153 150 146 135 119 122 114 96 83 79 86 96 112 109 99 91 88 78 76 73 73 66 69 75 99 107 92 101 89 105 98 110 106 102 103 107 108
156 161 160 164 162 161 158 158 153 144 122 121 110 103 101 92 84 94 109 108 99 89 84 81 92 80 87 84 82 82 98 115 127 118 132 35 114 107 116 118 107 108 111
161 159 159 161 159 162 168 162 154 145 133 118 101 115 132 98 82 108 126 114 99 96 92 81 77 76 99 96 78 75 60 92 91 113 81 105 144 120 125 118 116 117 115
162 164 167 167 164 172 164 162 149 132 105 89 105 330 155 134 75 96 109 109 93 84 95 88 65 66 52 42 56 17 119 163 155 125 68 46 108 145 136 128 131 130 131
167 169 172 173 168 168 185 170 142 118 121 125 236 256 116 137 173 83 80 81 64 77 66 74 55 34 22 33 17 21 59 180 171 136 53 25 315 151 147 154 147 136 141
172 175 174 179 174 179 196 206 162 179 183 207 224 325 92 140 190 114 71 96 28 213 69 51 49 16 48 15 90 58 56 53 163 175 31 6 291 175 160 168 166 154 145
179 175 176 180 179 185 183 176 174 192 180 203 227 134 223 96 133 153 106 91 149 43 250 92 266 98 106 107 99 49 9 82 55 43 21 34 29 270 174 180 169 174 167
180 176 178 184 186 192 184 193 203 193 194 193 202 232 180 182 148 148 140 139 216 354 50 60 306 51 97 93 80 98 83 30 292 353 312 39 76 54 49 175 182 178 178
178 176 183 192 197 197 194 197 197 191 193 202 223 225 246 178 203 150 110 122 130 65 84 83 31 59 128 111 75 78 113 88 116 10 60 55 78 61 72 111 179 175 173
179 184 185 184 198 203 199 202 196 183 210 199 211 252 264 195 169 157 97 268 36 99 14 70 350 17 85 180 62 343 141 41 94 94 50 37 24 53 63 72 93 173 174
183 185 186 187 200 209 198 205 200 195 208 210 215 237 257 232 191 181 163 273 276 224 133 93 123 7 120 154 154 114 112 58 111 131 152 179 15 16 62 51 71 71 115
188 192 192 194 201 211 205 195 211 197 215 202 219 221 243 250 217 192 179 234 279 83 102 183 177 187 135 126 133 115 96 114 146 76 116 132 342 341 42 43 48 51 64
186 193 194 195 196 205 200 203 198 206 215 213 210 219 234 245 234 220 224 262 185 224 200 264 129 112 137 132 112 141 103 108 100 74 114 92 93 61 77 24 23 45 65
188 193 198 198 199 203 209 210 199 209 215 220 209 217 232 241 228 226 222 227 219 238 248 215 178 159 195 175 190 180 151 150 117 136 125 137 101 115 110 5 59 15 21
191 196 201 200 201 205 207 203 204 209 211 219 213 217 229 236 227 229 231 214 217 230 237 198 171 165 163 194 202 120 160 182 172 212 147 164 134 197 190 151 160 153 195
195 195 202 203 205 212 204 202 205 201 207 212 216 218 232 237 220 225 244 235 213 223 243 223 182 174 190 212 221 200 254 108 169 174 189 221 210 218 169 176 243 78 192
194 192 197 207 208 213 209 198 207 209 208 209 218 217 225 236 240 212 233 239 232 211 224 233 195 189 192 186 212 218 247 163 171 173 194 221 232 214 213 173 220 203 84
196 194 194 207 213 215 212 201 204 212 204 209 211 217 218 226 234 233 219 237 240 209 212 223 224 212 195 198 188 206 212 175 193 215 230 219 226 194 219 219 210 249 229